Regional Weather Roundup
Issued by NWS

Home | Current Version | Previous Version | Text Only | Print | Product List | Glossary Off
Versions: 1 2 3 4 5 6 7 8 9 10 11 12 13 14 15 16 17 18 19 20 21 22 23 24 25 26 27 28 29 30 31 32 33 34 35 36 37 38 39 40 41 42 43 44 45 46 47 48 49 50

000
ASUS43 KLOT 242206
RWRIL

ILLINOIS REGIONAL WEATHER ROUNDUP
NATIONAL WEATHER SERVICE CHICAGO/ROMEOVILLE IL
400 PM CST MON NOV 24 2014

NOTE: "FAIR" INDICATES FEW OR NO CLOUDS BELOW 12,000 FEET WITH NO
SIGNIFICANT WEATHER AND/OR OBSTRUCTIONS TO VISIBILITY.

* THESE STATIONS ARE NOT UNDER NWS QUALITY CONTROL. THEY ALSO MAY NOT
  REPORT WEATHER SUCH AS PRECIPITATION OR FOG.

ILZ001-002-007-009-015-016-024-242300-
NORTHWEST ILLINOIS

CITY           SKY/WX    TMP DP  RH WIND       PRES   REMARKS
MOLINE         CLOUDY    27  21  78 W25G32    29.66R HAZE    WCI  12
STERLING*      CLOUDY   N/A N/A N/A W25G31    29.61R
SAVANNA*       CLOUDY    26  22  84 W17       29.61R WCI  13
$$

ILZ003-004-008-010-011-017-018-242300-
NORTH CENTRAL ILLINOIS

CITY           SKY/WX    TMP DP  RH WIND       PRES   REMARKS
ROCKFORD       FLURRIES  26  21  81 W24G32    29.55R WCI  11
FREEPORT*      CLOUDY    25  22  88 W24G31    29.56R WCI   9
ROCHELLE*      MIX PCPN  25  23  91 W31G38    29.58R WCI   8
DE KALB*       CLOUDY    25  22  89 W22G36    29.55R FOG     WCI  10
PERU*          CLOUDY    29  26  86 W22G37    29.65R WCI  16
$$

ILZ005-006-012>014-019>023-242300-
NORTHEAST ILLINOIS

CITY           SKY/WX    TMP DP  RH WIND       PRES   REMARKS
CHICAGO-OHARE  LGT SNOW  28  24  85 W21G33    29.53R FOG     WCI  15
CHICAGO-MIDWAY FLURRIES  32  26  78 W25G41    29.56R WCI  19
AURORA         CLOUDY    28  22  78 W30G39    29.57R WCI  12
LANSING*       CLOUDY    31  27  85 W23G35    29.58R WCI  18
JOLIET*        CLOUDY    30  25  82 W17G32    29.61R WCI  18
WAUKEGAN       LGT SNOW  28  24  85 SW10G31   29.47R FOG     WCI  19
DUPAGE AIRPORT LGT SNOW  28  24  85 W20G26    29.56R FOG     WCI  15
KANKAKEE*      CLOUDY    32  30  93 W24       29.65R FOG     WCI  19
WHEELING       LGT SNOW  28  23  81 W18G30    29.54R WCI  15
MORRIS*        CLOUDY    30  27  87 W25G38    29.61R WCI  16
ROMEOVILLE*    CLOUDY    30  26  84 W25G36    29.59R WCI  16
NORTHERLY ISL    N/A     31  27  85 W15         N/A  WCI  20
$$

LMZ740>746-242300-
SOUTHERN LAKE MICHIGAN

STATION/POSITION SKY/WX   TEMP    WIND        PRES    VSBY  WAVE
                          AIR SEA DIR/SP/G                  HT/PER
                          (F)     (DEG/KT/KT) (MB)    (MI)  (FT/S)
SOUTHERN BUOY              34 42  240/ 33/ 39  995.9R        10/ 7
WAUKEGAN HARBOR            29     250/ 27/ 37   N/A
HARRISON CRIB              30     240/ 32/ 43   N/A
BURNHAM HARBOR             31     240/ 12/ 22   N/A
CALUMET HARBOR             31     220/ 16/ 27  999.8R
MICHIGAN CITY              32     210/ 30/ 36   N/A
$$

ILZ025>027-034>036-040-047-049-050-058-095>099-242300-
WEST-CENTRAL ILLINOIS

CITY           SKY/WX    TMP DP  RH WIND       PRES   REMARKS
QUINCY         CLOUDY    33  25  72 W15G30    29.77R WCI  23
GALESBURG*     CLOUDY    28  24  87 W21G26    29.71R WCI  14
MACOMB*        LGT SNOW  30  27  89 W20G25    29.76R WCI  18
JACKSONVILLE*  CLOUDY    37  27  68 W16G24    29.78R WCI  27
PITTSFIELD*    CLOUDY    36  27  69 W13G23    29.79R WCI  27
$$

ILZ028>032-037-038-041>044-048-051>054-059>061-242300-
CENTRAL ILLINOIS

CITY           SKY/WX    TMP DP  RH WIND       PRES   REMARKS
PONTIAC        CLOUDY    32  29  90 W26G36    29.67R FOG     WCI  18
BLOOMINGTON    CLOUDY    31  27  85 W24G33    29.70R WCI  18
DECATUR        CLOUDY    36  27  69 W17G25    29.74R WCI  26
PEORIA         CLOUDY    31  24  75 W18G26    29.72R WCI  19
LACON*         LGT SNOW  28  25  86 W21       29.68R WCI  15
LINCOLN*       CLOUDY    36  28  74 W9G16     29.74R WCI  29
SPRINGFIELD    CLOUDY    35  27  72 W18G25    29.76R WCI  24
TAYLORVILLE    CLOUDY    34  28  80 W15       29.77R WCI  24
$$

ILZ033-039-045-046-055>057-062-063-242300-
EAST-CENTRAL ILLINOIS

CITY           SKY/WX    TMP DP  RH WIND       PRES   REMARKS
CHAMPAIGN      CLOUDY    34  28  79 W21       29.73R WCI  22
DANVILLE*      CLOUDY    33  27  77 W24G32    29.69R WCI  20
RANTOUL*       CLOUDY    35  28  77 W22G30    29.70R WCI  23
MATTOON        CLOUDY    36  27  69 W13G18    29.76R WCI  27
PARIS*         CLOUDY    36  32  84 W16G23    29.77R WCI  26
$$

ILZ079-100>102-242300-
SOUTHWEST ILLINOIS

CITY           SKY/WX    TMP DP  RH WIND       PRES   REMARKS
ALTON          MOCLDY    39  27  60 W18G28    29.82R WCI  30
BELLEVILLE     PTCLDY    42  28  58 W18G26    29.82R
CAHOKIA*       MOCLDY    41  27  57 W13G20    29.83R
SPARTA*        CLOUDY    44  31  59 W8        29.83R
$$

ILZ064>066-069>071-074>076-080>082-084>086-088>090-092>094-242300-
SOUTH-CENTRAL ILLINOIS

CITY           SKY/WX    TMP DP  RH WIND       PRES   REMARKS
CARBONDALE     PTCLDY    49  28  44 W12       29.82R
CAIRO*         PTCLDY    53  32  44 SW7       29.84R
EFFINGHAM*     CLOUDY    39  27  60 W15G26    29.80R WCI  31
MARION         MOCLDY    50  30  46 SW15      29.82R
MT. VERNON     PTCLDY    45  28  53 W7        29.82R
CENTRALIA*     PTCLDY    42  29  61 W16G23    29.82R
SALEM*           N/A     42  31  65 W18G24    29.83R
METROPOLIS*    CLOUDY    50  34  53 SW12G20   29.84R
$$

ILZ067-068-072-073-078-083-087-091-242300-
SOUTHEAST ILLINOIS

CITY           SKY/WX    TMP DP  RH WIND       PRES   REMARKS
LAWRENCEVILLE  CLOUDY    42  31  64 W16G22    29.81R
FLORA*         PTCLDY    41  30  66 W17       29.82R
FAIRFIELD*     CLOUDY    44  32  63 W6        29.81R
HARRISBURG*    PTCLDY    48  31  50 W13G18    29.83R
ROBINSON*      CLOUDY    40  31  70 W23G33    29.80R
CARMI*         MOCLDY    48  37  66 W7        29.81R
$$

ABBREVIATIONS USED IN REMARKS
   TC - TEMPERATURE IN CELSIUS
  WCI - WIND CHILL INDEX
   HX - HEAT INDEX
  VSB - VISIBILITY
$$



USA.gov is the U.S. government's official web portal to all federal, state and local government web resources and services.